Hourly Data Report for October 18, 2015

All times are specified in Local Standard Time (LST). Add 1 hour to adjust for Daylight Saving Time where and when it is observed.

KITCHENER/WATERLOO
ONTARIO

43°27'39.000" N
80°22'43.000" W
321.60 m
6144239
71368
YKF

Download Data

Hourly Data (October 2015)
Hourly Data Report for October 18, 2015
Temp Definition
°C
Dew Point Temp Definition
°C
Rel Hum Definition
%
Wind Dir Definition
10's deg

Wind Spd Definition
km/h
Visibility Definition
km
Stn Press Definition
kPa
Hmdx Definition


Wind Chill Definition


Weather Definition


TIME
00:00 Legend Double Dagger -1.4 -3.3 87 27 9 16.1 98.66   -5 LegendNANA
01:00 Legend Double Dagger -0.9 -2.0 92 31 8 16.1 98.64   -4 LegendNANA
02:00 Legend Double Dagger -1.0 -1.6 96 30 8 16.1 98.64   -4 LegendNANA
03:00 Legend Double Dagger -0.6 -1.0 97 22 8 16.1 98.60   -3 LegendNANA
04:00 Legend Double Dagger -0.2 -1.1 94   0 16.1 98.64     Snow
05:00 Legend Double Dagger 0.4 -0.9 91 25 13 16.1 98.65     Rain
06:00 Legend Double Dagger 0.4 -1.2 89 26 17 16.1 98.67     LegendNANA
07:00 Legend Double Dagger -0.5 -1.5 93 31 5 16.1 98.74   -2 LegendNANA
08:00 Legend Double Dagger 1.0 -0.8 88 28 13 16.1 98.77     LegendNANA
09:00 Legend Double Dagger 2.6 -1.9 72 30 11 16.1 98.84     LegendNANA
10:00 Legend Double Dagger 4.2 -3.1 59 31 18 16.1 98.88     LegendNANA
11:00 Legend Double Dagger 4.0 -4.2 55 31 21 16.1 98.91     LegendNANA
12:00 Legend Double Dagger 4.6 -4.6 51 33 22 16.1 98.90     LegendNANA
13:00 Legend Double Dagger 5.0 -6.0 45 32 26 16.1 98.89     LegendNANA
14:00 Legend Double Dagger 5.9 -6.4 41 32 34 16.1 98.90     LegendNANA
15:00 Legend Double Dagger 5.1 -6.1 44 30 26 16.1 98.92     LegendNANA
16:00 Legend Double Dagger 4.2 -5.5 49 30 18 16.1 98.95     LegendNANA
17:00 Legend Double Dagger 3.1 -5.5 53 30 17 16.1 98.99     LegendNANA
18:00 Legend Double Dagger 1.0 -5.2 64 30 15 16.1 99.05     LegendNANA
19:00 Legend Double Dagger -0.4 -5.2 70 32 9 16.1 99.09   -4 LegendNANA
20:00 Legend Double Dagger -1.6 -4.8 79 33 4 16.1 99.07   -3 LegendNANA
21:00 Legend Double Dagger -2.9 -4.7 87   0 16.1 99.06     LegendNANA
22:00 Legend Double Dagger -3.4 -4.4 93 24 5 16.1 99.07   -5 LegendNANA
23:00 Legend Double Dagger -3.0 -4.6 89   0 16.1 99.02     LegendNANA

Notes on Data Quality.

Legend

  • E = Estimated
  • M = Missing
  • NA = Not Available
  • ‡ = Partner data that is not subject to review by the National Climate Archives
Date modified: